Location: Franzen
(48.6167°N, 15.3833°E)
Time: 12:35:20
(UTC+00:00)

USA 245 - Pass Details

Date: 22 April 2021
Orbit: 266 x 984 km, 97.9° (Epoch: 10 May)

Event Time Altitude Azimuth Distance (km) Brightness Sun altitude
Exits shadow 20:06:09 46° 176° (S) 637 3.3 -18.2°
Maximum altitude 20:07:05 80° 254° (WSW) 458 2.9 -18.3°
Drops below altitude 10° 20:10:06 10° 344° (NNW) 1,426 6.4 -18.6°
Sets 20:11:52 0° 346° (NNW) 2,196 7.5 -18.8°
